TimeEDT,TemperatureF,Dew PointF,Humidity,Sea Level PressureIn,VisibilityMPH,Wind Direction,Wind SpeedMPH,Gust SpeedMPH,PrecipitationIn,Events,Conditions,WindDirDegrees,DateUTC
12:16 AM,35.6,33.8,93,30.10,1.2,Calm,Calm,-,N/A,,Clear,0,2011-10-22 04:16:00
12:26 AM,35.6,33.8,93,30.10,1.0,Calm,Calm,-,N/A,,Mist,0,2011-10-22 04:26:00
12:36 AM,35.6,33.8,93,30.10,1.0,Calm,Calm,-,N/A,,Clear,0,2011-10-22 04:36:00
12:43 AM,35.6,33.8,93,30.10,1.0,Calm,Calm,-,N/A,,Mist,0,2011-10-22 04:43:00
12:53 AM,35.1,33.1,92,30.12,0.5,Calm,Calm,-,N/A,Fog,Fog,0,2011-10-22 04:53:00
1:53 AM,34.0,32.0,92,30.12,0.8,Calm,Calm,-,N/A,,Mist,0,2011-10-22 05:53:00
2:28 AM,33.8,30.2,87,30.10,1.2,Calm,Calm,-,N/A,,Scattered Clouds,0,2011-10-22 06:28:00
2:31 AM,33.8,30.2,87,30.10,5.0,Calm,Calm,-,N/A,,Partly Cloudy,0,2011-10-22 06:31:00
2:53 AM,34.0,30.9,89,30.12,3.0,Calm,Calm,-,N/A,,Clear,0,2011-10-22 06:53:00
3:01 AM,33.8,30.2,87,30.11,6.0,Calm,Calm,-,N/A,,Scattered Clouds,0,2011-10-22 07:01:00
3:07 AM,33.8,30.2,87,30.10,2.5,Calm,Calm,-,N/A,,Mostly Cloudy,0,2011-10-22 07:07:00
3:09 AM,33.8,30.2,87,30.10,1.5,Calm,Calm,-,N/A,,Mostly Cloudy,0,2011-10-22 07:09:00
3:20 AM,33.8,30.2,87,30.10,0.8,Calm,Calm,-,N/A,,Mist,0,2011-10-22 07:20:00
3:51 AM,32.0,28.4,87,30.10,1.0,Calm,Calm,-,N/A,,Mist,0,2011-10-22 07:51:00
3:53 AM,32.0,30.0,92,30.12,0.8,Calm,Calm,-,N/A,,Mist,0,2011-10-22 07:53:00
5:19 AM,30.2,28.4,93,30.10,1.0,Calm,Calm,-,N/A,,Mist,0,2011-10-22 09:19:00
5:31 AM,32.0,28.4,87,30.11,0.5,Calm,Calm,-,N/A,Fog,Fog,0,2011-10-22 09:31:00
5:53 AM,30.9,28.9,92,30.12,0.5,Calm,Calm,-,N/A,Fog,Light Freezing Fog,0,2011-10-22 09:53:00
6:06 AM,30.2,28.4,93,30.11,2.0,Calm,Calm,-,N/A,,Overcast,0,2011-10-22 10:06:00
6:12 AM,30.2,28.4,93,30.11,0.8,Calm,Calm,-,N/A,,Mist,0,2011-10-22 10:12:00
6:27 AM,30.2,28.4,93,30.11,2.0,Calm,Calm,-,N/A,,Mostly Cloudy,0,2011-10-22 10:27:00
6:29 AM,30.2,28.4,93,30.11,3.0,Calm,Calm,-,N/A,,Mostly Cloudy,0,2011-10-22 10:29:00
6:38 AM,30.2,28.4,93,30.11,5.0,Calm,Calm,-,N/A,,Scattered Clouds,0,2011-10-22 10:38:00
6:53 AM,30.9,28.9,92,30.14,3.0,Calm,Calm,-,N/A,,Mostly Cloudy,0,2011-10-22 10:53:00
6:57 AM,30.2,28.4,93,30.12,2.0,Calm,Calm,-,N/A,,Mostly Cloudy,0,2011-10-22 10:57:00
8:05 AM,30.2,28.4,93,30.12,1.2,Calm,Calm,-,N/A,,Scattered Clouds,0,2011-10-22 12:05:00
8:41 AM,32.0,30.2,93,30.12,2.5,Calm,Calm,-,N/A,,Clear,0,2011-10-22 12:41:00
8:50 AM,32.0,32.0,100,30.13,3.0,Calm,Calm,-,N/A,,Clear,0,2011-10-22 12:50:00
8:53 AM,33.1,32.0,96,30.14,4.0,Calm,Calm,-,N/A,,Clear,0,2011-10-22 12:53:00
9:53 AM,39.9,37.0,89,30.14,8.0,SSW,5.8,-,N/A,,Clear,210,2011-10-22 13:53:00
10:53 AM,46.9,37.9,71,30.14,10.0,Variable,4.6,-,N/A,,Clear,0,2011-10-22 14:53:00
11:53 AM,51.1,36.0,56,30.14,10.0,WSW,6.9,-,N/A,,Clear,240,2011-10-22 15:53:00
12:53 PM,54.0,37.9,55,30.12,10.0,Variable,6.9,-,N/A,,Clear,0,2011-10-22 16:53:00
1:53 PM,57.0,35.1,44,30.10,10.0,WSW,6.9,-,N/A,,Clear,250,2011-10-22 17:53:00
2:53 PM,57.9,34.0,41,30.09,10.0,WSW,4.6,-,N/A,,Clear,250,2011-10-22 18:53:00
3:53 PM,59.0,35.1,41,30.09,10.0,SW,4.6,-,N/A,,Clear,220,2011-10-22 19:53:00
4:53 PM,57.9,34.0,41,30.08,10.0,WSW,3.5,-,N/A,,Clear,240,2011-10-22 20:53:00
5:53 PM,55.9,34.0,44,30.08,10.0,Calm,Calm,-,N/A,,Clear,0,2011-10-22 21:53:00
6:53 PM,54.0,36.0,51,30.08,10.0,Calm,Calm,-,N/A,,Clear,0,2011-10-22 22:53:00
7:53 PM,48.0,37.0,66,30.09,10.0,Calm,Calm,-,N/A,,Clear,0,2011-10-22 23:53:00
8:53 PM,45.0,37.0,74,30.09,10.0,Calm,Calm,-,N/A,,Clear,0,2011-10-23 00:53:00
9:53 PM,42.1,37.0,82,30.09,10.0,Calm,Calm,-,N/A,,Clear,0,2011-10-23 01:53:00
11:53 PM,41.0,36.0,82,30.08,10.0,Calm,Calm,-,N/A,,Clear,0,2011-10-23 03:53:00